FW9176 Weather Reports


time (UTC)temp
F
wind
direction
speed
knots
gust
knots
rain 1hr
in
rain 24hr
in
rain mn
in
humidity
%
barometer
mb
20260903000101 93 0 0.0 0.9 0.00 0.00 0.00 59 1010.4
20260902234623 93 0 0.0 2.6 0.00 0.00 0.00 58 1010.3
20260902233104 94 0 0.9 7.0 0.00 0.00 0.00 58 1010.3
20260902231613 93 0 0.0 3.5 0.00 0.00 0.00 59 1010.5
20260902230114 93 0 0.0 2.6 0.00 0.00 0.00 58 1010.6
20260902224605 94 0 0.0 1.7 0.00 0.00 0.00 57 1010.6
20260902223101 94 0 0.0 2.6 0.00 0.00 0.00 56 1010.4
20260902221601 94 0 0.0 4.3 0.00 0.00 0.00 55 1010.6
20260902214614 95 280 0.9 2.6 0.00 0.00 0.00 52 1010.5
20260902213100 95 286 0.0 3.5 0.00 0.00 0.00 54 1010.7
20260902211604 95 276 0.9 3.5 0.00 0.00 0.00 52 1010.7
20260902204601 95 290 0.0 3.5 0.00 0.00 0.00 52 1010.7
20260902203109 95 271 0.0 7.0 0.00 0.00 0.00 53 1010.8
20260902201603 95 183 0.9 5.2 0.00 0.00 0.00 52 1011.0
20260902200059 95 175 0.0 3.5 0.00 0.00 0.00 53 1011.0
20260902194558 94 0 0.0 5.2 0.00 0.00 0.00 53 1011.0
20260902193101 95 164 0.0 4.3 0.00 0.00 0.00 53 1011.2
20260902191605 96 0 0.0 3.5 0.00 0.00 0.00 53 1011.4
20260902190108 96 0 0.9 4.3 0.00 0.00 0.00 51 1011.4
20260902184559 96 259 0.0 5.2 0.00 0.00 0.00 51 1011.7
20260902183104 95 0 0.9 5.2 0.00 0.00 0.00 52 1011.7
20260902181605 95 124 0.9 4.3 0.00 0.00 0.00 52 1011.7
20260902180105 94 141 0.9 3.5 0.00 0.00 0.00 53 1011.9
20260902174608 95 0 0.0 3.5 0.00 0.00 0.00 55 1012.0
20260902173105 94 257 0.0 6.1 0.00 0.00 0.00 56 1012.0
20260902171606 93 273 0.0 3.5 0.00 0.00 0.00 59 1012.0
20260902164601 92 281 0.0 5.2 0.00 0.00 0.00 57 1012.4
20260902163106 91 0 0.0 3.5 0.00 0.00 0.00 57 1012.5
20260902161614 90 92 0.0 4.3 0.00 0.00 0.00 57 1012.6
20260902160059 88 0 0.0 2.6 0.00 0.00 0.00 58 1012.7
20260902154559 88 0 0.0 2.6 0.00 0.00 0.00 61 1012.9
20260902153117 87 275 0.0 2.6 0.00 0.00 0.00 60 1012.8
20260902151556 86 0 0.0 4.3 0.00 0.00 0.00 61 1012.6
20260902150059 86 0 0.0 2.6 0.00 0.00 0.00 61 1012.6
20260902144618 86 0 0.0 2.6 0.00 0.00 0.00 62 1012.6
20260902143059 85 0 0.0 1.7 0.00 0.00 0.00 64 1012.5
20260902141555 84 0 0.0 1.7 0.00 0.00 0.00 65 1012.5
20260902134602 81 0 0.0 2.6 0.00 0.00 0.00 70 1012.6
20260902133102 80 0 0.0 2.6 0.00 0.00 0.00 71 1012.7
20260902131602 80 0 0.0 1.7 0.00 0.00 0.00 72 1012.9
20260902124603 79 0 0.0 1.7 0.00 0.00 0.00 73 1012.9
20260902123104 79 0 0.0 0.0 0.00 0.00 0.00 73 1012.9
20260902121612 78 0 0.0 1.7 0.00 0.00 0.00 73 1012.7
20260902120111 78 0 0.0 0.0 0.00 0.00 0.00 73 1012.6
20260902114616 78 0 0.0 2.6 0.00 0.00 0.00 72 1012.4
20260902113103 78 0 0.0 2.6 0.00 0.00 0.00 72 1012.5
20260902111602 78 0 0.0 0.0 0.00 0.00 0.00 72 1012.5
20260902110059 79 0 0.0 0.9 0.00 0.00 0.00 72 1012.4
20260902104604 79 0 0.0 0.9 0.00 0.00 0.00 71 1012.3
20260902103119 79 0 0.0 0.0 0.00 0.00 0.00 72 1012.3
20260902101558 79 0 0.0 0.9 0.00 0.00 0.00 71 1012.3
20260902100059 79 0 0.0 2.6 0.00 0.00 0.00 72 1012.3
20260902094601 79 0 0.0 1.7 0.00 0.00 0.00 72 1012.3
20260902093110 79 0 0.0 1.7 0.00 0.00 0.00 72 1012.1
20260902091559 79 0 0.0 0.9 0.00 0.00 0.00 73 1012.1
20260902084600 80 0 0.0 0.0 0.00 0.00 0.00 72 1012.0
20260902083055 80 0 0.0 0.9 0.00 0.00 0.00 72 1012.0
20260902081555 80 0 0.0 0.9 0.00 0.00 0.00 72 1012.0
20260902080053 80 0 0.0 0.0 0.00 0.00 0.00 72 1011.9
20260902074613 80 0 0.0 0.0 0.00 0.00 0.00 72 1012.0
20260902073056 81 0 0.0 0.9 0.00 0.00 0.00 72 1011.9
20260902071559 81 169 0.0 3.5 0.00 0.00 0.00 71 1011.9
20260902070103 81 0 0.0 1.7 0.00 0.00 0.00 72 1011.9
20260902064602 81 0 0.0 0.9 0.00 0.00 0.00 71 1012.0
20260902063057 81 0 0.0 0.9 0.00 0.00 0.00 71 1012.0
20260902061559 81 0 0.0 2.6 0.00 0.00 0.00 72 1012.0
20260902060104 81 185 0.0 1.7 0.00 0.00 0.00 72 1011.9
20260902054559 81 0 0.0 2.6 0.00 0.00 0.00 72 1011.9
20260902053106 81 0 0.0 3.5 0.00 0.00 0.00 72 1012.1
20260902051559 82 0 0.0 1.7 0.00 0.00 0.00 72 1012.1
20260902050100 82 0 0.0 0.9 0.00 0.00 0.00 71 1012.2
20260902044603 82 181 0.0 1.7 0.00 0.00 0.00 71 1012.3
20260902043109 83 0 0.0 1.7 0.00 0.00 0.00 70 1012.2
20260902041600 83 167 0.0 2.6 0.00 0.00 0.00 69 1012.2
20260902040105 84 0 0.0 2.6 0.00 0.00 0.00 67 1012.3
20260902034608 84 0 0.0 3.5 0.00 0.00 0.00 66 1012.5
20260902033105 85 0 0.0 1.7 0.00 0.00 0.00 66 1012.5
20260902031600 85 137 0.0 3.5 0.00 0.00 0.00 66 1012.5
20260902030103 85 0 0.0 2.6 0.00 0.00 0.00 66 1012.4
20260902024604 85 154 0.0 0.9 0.00 0.00 0.00 66 1012.3
20260902023104 85 0 0.0 1.7 0.00 0.00 0.00 66 1012.3
20260902021604 85 0 0.0 0.9 0.00 0.00 0.00 66 1012.5
20260902020105 86 0 0.0 0.0 0.00 0.00 0.00 66 1012.4
20260902014556 86 0 0.0 0.9 0.00 0.00 0.00 65 1012.2
20260902013100 87 148 0.0 2.6 0.00 0.00 0.00 64 1011.9
20260902011602 87 171 0.0 2.6 0.00 0.00 0.00 63 1011.6
20260902010059 88 139 0.0 2.6 0.00 0.00 0.00 62 1011.5
20260902004608 89 144 0.0 2.6 0.00 0.00 0.00 61 1011.4
20260902003106 90 177 0.0 2.6 0.00 0.00 0.00 57 1011.4
20260902001607 91 0 0.0 3.5 0.00 0.00 0.00 54 1011.6